EW8748 Mirabella Imbaccari IT current weather conditions

sailwx.info

Wind from 300 at 1 knots gusting 4

Air temperature 11.1° C
Dewpoint 8.2° C

Last reported at 2019-Dec-08 22:10 UTC.
Time now 2019-Dec-08 23:13 UTC

Location: N 37°20' E 014°27'.
View on Google Maps.

See reports from other nearby stations

  
Tides and Currents Weather Stations Pressure Air Temp Water Temp Dewpoint Dewpoint Depression Visibility Wind Speed Wind Dir Waves Ship Positions
date/time (UTC)wind fromknots sea level pressurealtimeterstation pressurevisibilityair tempwater tempwave heightnotes
2019-Dec-08 22:10 300 1 gusting 4 11.1
2019-Dec-08 22:05 299 0 gusting 2 11.1
2019-Dec-08 22:00 320 0 gusting 2 11.1
2019-Dec-08 21:55 325 0 gusting 2 11.1
2019-Dec-08 21:50 11.1
2019-Dec-08 21:45 298 0 gusting 2 11.1
2019-Dec-08 21:40 298 0 gusting 2 11.1
2019-Dec-08 21:35 322 11.1
2019-Dec-08 21:30 298 11.1
2019-Dec-08 21:25 318 0 gusting 2 11.1
2019-Dec-08 21:15 329 11.1
2019-Dec-08 21:10 11.1
2019-Dec-08 21:05 323 11.1
2019-Dec-08 20:55 322 0 gusting 2 11.1
2019-Dec-08 20:40 298 0 gusting 2 11.1
2019-Dec-08 20:35 335 0 gusting 2 11.1
2019-Dec-08 20:30 11.1
2019-Dec-08 20:25 332 0 gusting 2 11.1
2019-Dec-08 20:20 320 0 gusting 2 11.1
2019-Dec-08 20:15 319 1 gusting 2 11.1
2019-Dec-08 20:00 317 1 gusting 2 11.1
2019-Dec-08 19:55 11.1
2019-Dec-08 19:50 11.7
2019-Dec-08 19:40 299 0 gusting 2 11.7
2019-Dec-08 19:35 299 11.7
2019-Dec-08 19:30 298 0 gusting 2 11.7
2019-Dec-08 19:25 320 1 gusting 2 11.1
2019-Dec-08 19:15 324 11.1
2019-Dec-08 19:10 300 0 gusting 2 11.1
2019-Dec-08 19:05 300 0 gusting 2 11.1
2019-Dec-08 19:00 324 0 gusting 1 11.1
2019-Dec-08 18:55 11.1
2019-Dec-08 18:45 320 0 gusting 1 11.1
2019-Dec-08 18:40 11.1
2019-Dec-08 18:35 299 11.7
2019-Dec-08 18:25 319 0 gusting 1 11.7
2019-Dec-08 18:20 298 11.7
2019-Dec-08 18:15 298 11.7
2019-Dec-08 18:05 11.7
2019-Dec-08 18:00 11.7
2019-Dec-08 17:55 299 1 gusting 6 11.7
2019-Dec-08 17:50 298 1 gusting 5 11.7
2019-Dec-08 17:45 322 1 gusting 7 11.7
2019-Dec-08 17:40 298 2 gusting 5 12.2
2019-Dec-08 17:35 320 1 gusting 6 12.2
2019-Dec-08 17:25 308 2 gusting 6 12.2
2019-Dec-08 17:10 12.2
2019-Dec-08 17:05 293 2 gusting 5 12.2
2019-Dec-08 17:00 282 1 gusting 5 12.2
2019-Dec-08 16:55 271 0 gusting 4 12.8
2019-Dec-08 16:45 270 12.8
2019-Dec-08 16:35 12.8
2019-Dec-08 16:30 297 12.8
2019-Dec-08 16:25 299 12.8
2019-Dec-08 16:20 271 12.8
2019-Dec-08 16:10 271 0 gusting 1 13.3
2019-Dec-08 16:05 271 13.3
2019-Dec-08 15:55 271 13.3
2019-Dec-08 15:50 271 1 gusting 2 13.3
2019-Dec-08 15:45 271 1 gusting 2 13.3
2019-Dec-08 15:40 271 13.3
2019-Dec-08 15:35 271 1 gusting 4 13.9
2019-Dec-08 15:30 270 2 gusting 6 13.9
2019-Dec-08 15:25 271 1 gusting 4 13.9
2019-Dec-08 15:20 271 2 gusting 6 13.9
2019-Dec-08 15:15 271 2 gusting 6 14.4
2019-Dec-08 15:10 271 3 gusting 5 14.4
2019-Dec-08 15:05 271 3 gusting 6 14.4
2019-Dec-08 14:55 273 4 gusting 8 15.0
2019-Dec-08 14:50 275 4 gusting 7 16.1
2019-Dec-08 14:45 286 1 gusting 6 16.1
2019-Dec-08 14:40 290 0 gusting 4 16.7
2019-Dec-08 14:35 290 16.7
2019-Dec-08 14:30 290 16.1
2019-Dec-08 14:15 290 15.6
2019-Dec-08 14:10 290 15.6
2019-Dec-08 13:55 290 15.6
2019-Dec-08 13:50 290 1 gusting 2 16.1
2019-Dec-08 13:40 290 0 gusting 2 15.6
2019-Dec-08 13:35 290 0 gusting 2 15.6
2019-Dec-08 13:30 290 1 gusting 2 15.6
2019-Dec-08 13:25 290 0 gusting 4 15.6
2019-Dec-08 13:20 290 1 gusting 4 15.6
2019-Dec-08 13:15 290 1 gusting 5 16.1
2019-Dec-08 13:10 290 0 gusting 2 16.1
2019-Dec-08 13:00 290 0 gusting 2 16.7
2019-Dec-08 12:55 290 2 gusting 6 16.7
2019-Dec-08 12:50 276 2 gusting 5 16.7
2019-Dec-08 12:45 265 0 gusting 2 16.7
2019-Dec-08 12:35 265 16.1
2019-Dec-08 12:30 265 16.1
2019-Dec-08 12:10 265 1 gusting 4 16.1
2019-Dec-08 11:55 265 2 gusting 4 16.1
2019-Dec-08 11:50 265 2 gusting 6 16.7
2019-Dec-08 11:45 265 1 gusting 4 16.7
2019-Dec-08 11:40 265 0 gusting 4 16.1
2019-Dec-08 11:35 265 2 gusting 5 16.1
2019-Dec-08 11:30 265 2 gusting 4 16.1
2019-Dec-08 11:20 265 0 gusting 2 16.1
2019-Dec-08 11:15 265 0 gusting 2 16.1
2019-Dec-08 11:10 265 1 gusting 4 16.1
2019-Dec-08 11:05 265 1 gusting 5 16.1
2019-Dec-08 11:00 265 1 gusting 5 16.1
2019-Dec-08 10:55 265 0 gusting 2 16.1
2019-Dec-08 10:50 265 1 gusting 4 16.1
2019-Dec-08 10:45 265 0 gusting 4 16.1
2019-Dec-08 10:30 265 0 gusting 2 16.1
2019-Dec-08 10:25 265 1 gusting 2 16.1
2019-Dec-08 10:20 265 0 gusting 2 16.1
2019-Dec-08 10:15 265 16.1
2019-Dec-08 10:10 265 15.6
2019-Dec-08 10:05 265 0 gusting 2 15.6
2019-Dec-08 10:00 265 0 gusting 2 15.0
2019-Dec-08 09:55 265 0 gusting 2 15.0
2019-Dec-08 09:50 265 1 gusting 2 15.0
2019-Dec-08 09:45 265 15.6
2019-Dec-08 09:40 266 1 gusting 2 15.6
2019-Dec-08 09:35 265 1 gusting 2 15.6
2019-Dec-08 09:30 269 0 gusting 2 16.1
2019-Dec-08 09:25 269 1 gusting 2 16.1
2019-Dec-08 09:15 269 16.7
2019-Dec-08 09:00 269 15.6
2019-Dec-08 08:40 269 13.9
2019-Dec-08 08:35 269 13.9
2019-Dec-08 08:30 269 13.9
2019-Dec-08 08:20 269 13.3
2019-Dec-08 08:15 269 12.8
2019-Dec-08 08:05 269 12.8
2019-Dec-08 08:00 269 12.8
2019-Dec-08 07:50 269 12.8
2019-Dec-08 07:40 269 11.7
2019-Dec-08 07:35 269 11.7
2019-Dec-08 07:30 269 1 gusting 2 11.1
2019-Dec-08 07:25 269 0 gusting 2 11.1
2019-Dec-08 07:20 269 11.1
2019-Dec-08 07:10 269 11.1
2019-Dec-08 07:05 269 11.1
2019-Dec-08 07:00 269 11.1
2019-Dec-08 06:55 269 11.1
2019-Dec-08 06:50 269 11.7
2019-Dec-08 06:45 269 11.1
2019-Dec-08 06:40 269 11.1
2019-Dec-08 06:35 269 10.6
2019-Dec-08 06:15 269 10.0
2019-Dec-08 06:10 269 10.0
2019-Dec-08 06:00 269 1 gusting 2 10.0
2019-Dec-08 05:55 269 10.0
2019-Dec-08 05:50 269 10.6
2019-Dec-08 05:35 269 10.6
2019-Dec-08 05:30 269 0 gusting 1 10.6
2019-Dec-08 05:25 269 10.6
2019-Dec-08 05:20 269 10.6
2019-Dec-08 05:15 269 10.6
2019-Dec-08 05:05 269 11.1
2019-Dec-08 05:00 269 11.1
2019-Dec-08 04:50 269 10.6
2019-Dec-08 04:45 269 10.6
2019-Dec-08 04:40 269 10.6
2019-Dec-08 04:35 269 11.1
2019-Dec-08 04:30 270 11.1
2019-Dec-08 04:25 269 11.1
2019-Dec-08 04:20 269 0 gusting 2 11.1
2019-Dec-08 04:10 269 1 gusting 2 10.6
2019-Dec-08 04:05 269 1 gusting 2 11.1
2019-Dec-08 03:55 269 10.6
2019-Dec-08 03:50 269 0 gusting 2 10.6
2019-Dec-08 03:40 269 0 gusting 2 10.6
2019-Dec-08 03:35 269 11.1
2019-Dec-08 03:30 269 11.1
2019-Dec-08 03:25 269 1 gusting 2 11.1
2019-Dec-08 03:20 269 0 gusting 1 11.1
2019-Dec-08 03:15 269 0 gusting 1 11.1
2019-Dec-08 03:05 269 0 gusting 2 11.7
2019-Dec-08 03:00 269 0 gusting 1 11.7
2019-Dec-08 02:55 269 0 gusting 2 11.7
2019-Dec-08 02:40 269 11.1
2019-Dec-08 02:35 269 0 gusting 1 11.1
2019-Dec-08 02:20 269 11.1
2019-Dec-08 02:10 269 0 gusting 2 10.6
2019-Dec-08 02:05 269 0 gusting 2 10.6
2019-Dec-08 01:55 269 2 gusting 4 10.6
2019-Dec-08 01:50 269 1 gusting 2 10.6
2019-Dec-08 01:45 269 1 gusting 2 10.0
2019-Dec-08 01:40 269 2 gusting 2 10.0
2019-Dec-08 01:30 269 0 gusting 1 10.0
2019-Dec-08 01:20 269 10.6
2019-Dec-08 01:15 269 0 gusting 2 10.6
2019-Dec-08 01:05 269 4 gusting 5 10.6
2019-Dec-08 01:00 269 2 gusting 2 11.1
2019-Dec-08 00:55 269 2 gusting 2 11.1
2019-Dec-08 00:50 269 0 gusting 1 11.1
2019-Dec-08 00:40 269 0 gusting 1 11.1
2019-Dec-08 00:30 269 1 gusting 2 11.1
2019-Dec-08 00:25 269 1 gusting 2 11.7
2019-Dec-08 00:20 269 2 gusting 2 11.7
2019-Dec-08 00:15 269 1 gusting 2 11.7
2019-Dec-08 00:10 269 0 gusting 1 12.2
2019-Dec-08 00:05 269 11.7
2019-Dec-08 00:00 269 11.7
2019-Dec-07 23:50 269 11.1
2019-Dec-07 23:45 269 11.1
2019-Dec-07 23:40 269 0 gusting 2 11.1
2019-Dec-07 23:30 269 0 gusting 2 11.1
2019-Dec-07 23:25 269 11.1
2019-Dec-07 23:15 269 0 gusting 1 10.6
2019-Dec-07 23:10 269 10.6
2019-Dec-07 23:05 270 10.6
2019-Dec-07 22:55 269 11.1
2019-Dec-07 22:50 269 0 gusting 2 11.1
2019-Dec-07 22:45 270 2 gusting 5 11.1
2019-Dec-07 22:35 268 4 gusting 5 11.1
2019-Dec-07 22:25 287 2 gusting 4 11.1
2019-Dec-07 22:15 279 3 gusting 6 11.1
2019-Dec-07 22:10 266 2 gusting 5 11.1
2019-Dec-07 22:05 276 2 gusting 5 11.1
2019-Dec-07 21:50 264 2 gusting 4 11.1
2019-Dec-07 21:45 11.1
2019-Dec-07 21:35 306 2 gusting 4 11.1
2019-Dec-07 21:30 302 3 gusting 5 11.1
2019-Dec-07 21:25 297 2 gusting 4 11.1
2019-Dec-07 21:20 263 2 gusting 5 11.1
2019-Dec-07 21:15 295 3 gusting 5 11.1
2019-Dec-07 21:10 11.1
2019-Dec-07 21:05 311 4 gusting 6 11.1
2019-Dec-07 21:00 264 5 gusting 6 11.1
2019-Dec-07 20:45 11.1
2019-Dec-07 20:40 302 2 gusting 6 11.1
2019-Dec-07 20:30 294 2 gusting 5 11.1
2019-Dec-07 20:25 292 0 gusting 4 11.1
2019-Dec-07 20:20 261 0 gusting 4 11.1
2019-Dec-07 20:10 256 3 gusting 6 11.1
2019-Dec-07 20:00 278 4 gusting 6 11.1
2019-Dec-07 19:50 297 3 gusting 6 11.7
2019-Dec-07 19:40 11.7
2019-Dec-07 19:35 299 2 gusting 4 11.7
2019-Dec-07 19:30 299 1 gusting 4 11.7
2019-Dec-07 19:25 314 2 gusting 5 11.7
2019-Dec-07 19:20 11.7
2019-Dec-07 19:15 11.7
2019-Dec-07 19:10 264 2 gusting 6 11.7
2019-Dec-07 19:05 302 4 gusting 6 11.7
2019-Dec-07 19:00 264 4 gusting 6 11.7
2019-Dec-07 18:50 12.2
2019-Dec-07 18:40 270 4 gusting 6 12.2
2019-Dec-07 18:35 299 3 gusting 6 12.2
2019-Dec-07 18:25 298 2 gusting 4 12.2
2019-Dec-07 18:20 12.2
2019-Dec-07 18:15 308 0 gusting 2 12.2
2019-Dec-07 18:10 275 1 gusting 2 12.2
2019-Dec-07 18:05 318 1 gusting 2 12.2
2019-Dec-07 18:00 303 1 gusting 2 12.2
2019-Dec-07 17:50 314 1 gusting 5 12.2
2019-Dec-07 17:45 301 1 gusting 4 12.8
2019-Dec-07 17:35 301 2 gusting 5 12.8
2019-Dec-07 17:30 272 4 gusting 6 12.8
2019-Dec-07 17:25 324 3 gusting 6 12.8
2019-Dec-07 17:15 319 1 gusting 6 12.8
2019-Dec-07 17:10 12.8
2019-Dec-07 17:05 324 1 gusting 2 12.8
2019-Dec-07 17:00 314 0 gusting 2 12.8
2019-Dec-07 16:50 311 13.3
2019-Dec-07 16:45 307 0 gusting 2 13.3
2019-Dec-07 16:35 272 2 gusting 4 13.3
2019-Dec-07 16:25 316 13.3
2019-Dec-07 16:15 300 0 gusting 2 13.3
2019-Dec-07 16:10 263 1 gusting 4 13.3
2019-Dec-07 16:00 283 3 gusting 6 13.9
2019-Dec-07 15:50 263 2 gusting 7 13.9
2019-Dec-07 15:45 285 1 gusting 7 13.9
2019-Dec-07 15:35 293 3 gusting 6 14.4
2019-Dec-07 15:30 312 2 gusting 7 14.4
2019-Dec-07 15:20 285 5 gusting 8 15.0
2019-Dec-07 15:10 274 5 gusting 10 15.6
2019-Dec-07 15:05 255 5 gusting 10 15.6
2019-Dec-07 14:55 248 5 gusting 10 16.7
2019-Dec-07 14:50 250 4 gusting 10 16.7
2019-Dec-07 14:45 265 4 gusting 6 16.7
2019-Dec-07 14:30 273 5 gusting 7 16.7
2019-Dec-07 14:25 292 5 gusting 8 17.2
2019-Dec-07 14:15 245 3 gusting 6 17.2
2019-Dec-07 14:00 278 5 gusting 10 17.2
2019-Dec-07 13:50 253 5 gusting 10 17.2
2019-Dec-07 13:45 268 6 gusting 10 17.2
2019-Dec-07 13:35 277 6 gusting 10 17.2
2019-Dec-07 13:15 299 5 gusting 8 17.2
2019-Dec-07 13:10 266 5 gusting 8 17.2
2019-Dec-07 13:00 268 5 gusting 11 17.2
2019-Dec-07 12:45 261 6 gusting 12 17.2
2019-Dec-07 12:35 282 6 gusting 13 16.7
2019-Dec-07 12:30 278 5 gusting 12 16.7
2019-Dec-07 12:20 304 5 gusting 13 17.2
2019-Dec-07 12:15 272 5 gusting 12 17.2
2019-Dec-07 12:05 287 6 gusting 12 16.7
2019-Dec-07 11:50 290 7 gusting 14 16.7
2019-Dec-07 11:45 279 6 gusting 14 16.7
2019-Dec-07 11:40 291 8 gusting 14 16.7
2019-Dec-07 11:35 293 8 gusting 13 16.7
2019-Dec-07 11:25 272 8 gusting 17 16.1
2019-Dec-07 11:15 291 7 gusting 12 16.1
2019-Dec-07 10:55 283 6 gusting 11 16.1
2019-Dec-07 10:50 291 5 gusting 8 16.1
2019-Dec-07 10:35 278 6 gusting 10 15.6
2019-Dec-07 10:25 270 5 gusting 10 15.6
2019-Dec-07 10:20 269 6 gusting 12 15.6
2019-Dec-07 10:15 261 4 gusting 11 15.6
2019-Dec-07 10:05 269 5 gusting 10 15.6
2019-Dec-07 10:00 267 5 gusting 8 15.6
2019-Dec-07 09:50 259 4 gusting 11 15.6
2019-Dec-07 09:40 270 6 gusting 11 15.0
2019-Dec-07 09:35 263 5 gusting 10 15.0
2019-Dec-07 09:25 239 4 gusting 7 14.4
2019-Dec-07 09:20 237 2 gusting 6 14.4
2019-Dec-07 08:50 238 4 gusting 6 13.9
2019-Dec-07 08:35 240 1 gusting 5 13.3
2019-Dec-07 08:15 240 1 gusting 4 12.8
2019-Dec-07 08:05 241 1 gusting 4 12.2
2019-Dec-07 08:00 241 1 gusting 2 12.2
2019-Dec-07 07:50 241 12.2
2019-Dec-07 07:30 273 2 gusting 4 11.7
2019-Dec-07 07:25 273 2 gusting 4 11.1
2019-Dec-07 07:15 275 0 gusting 4 10.6
2019-Dec-07 07:05 275 10.6
2019-Dec-07 07:00 276 2 gusting 4 10.6
2019-Dec-07 06:55 277 0 gusting 2 11.1
2019-Dec-07 06:40 278 11.1
2019-Dec-07 06:35 277 11.7
2019-Dec-07 06:25 277 0 gusting 2 11.7
2019-Dec-07 06:10 277 11.1
2019-Dec-07 06:05 277 0 gusting 1 11.1
2019-Dec-07 06:00 277 0 gusting 1 11.7
2019-Dec-07 05:45 280 0 gusting 1 11.1
2019-Dec-07 05:40 277 11.1
2019-Dec-07 05:30 278 10.6
2019-Dec-07 05:25 280 1 gusting 4 10.6
2019-Dec-07 05:15 297 2 gusting 4 10.6
2019-Dec-07 05:10 10.6
2019-Dec-07 05:05 306 1 gusting 4 10.6
2019-Dec-07 05:00 306 2 gusting 4 10.6
2019-Dec-07 04:50 296 4 gusting 6 10.6
2019-Dec-07 04:40 275 3 gusting 6 10.6
2019-Dec-07 04:30 10.6
2019-Dec-07 04:25 295 3 gusting 5 10.6
2019-Dec-07 04:10 298 11.1
2019-Dec-07 04:05 302 1 gusting 2 11.1
2019-Dec-07 04:00 298 0 gusting 4 11.1
2019-Dec-07 03:55 299 2 gusting 5 11.1
2019-Dec-07 03:40 290 4 gusting 6 10.6
2019-Dec-07 03:35 271 3 gusting 6 10.6
2019-Dec-07 03:25 292 3 gusting 6 10.6
2019-Dec-07 03:20 284 2 gusting 5 11.1
2019-Dec-07 03:10 288 2 gusting 4 11.1
2019-Dec-07 03:00 304 4 gusting 7 11.1
2019-Dec-07 02:55 297 3 gusting 6 11.1
2019-Dec-07 02:50 280 3 gusting 6 11.1
2019-Dec-07 02:35 288 4 gusting 10 11.1
2019-Dec-07 02:25 298 5 gusting 8 11.1
2019-Dec-07 02:20 281 4 gusting 6 11.1
2019-Dec-07 02:15 286 4 gusting 7 11.1
2019-Dec-07 02:05 282 3 gusting 6 11.1
2019-Dec-07 02:00 281 5 gusting 8 11.1
2019-Dec-07 01:45 273 4 gusting 6 11.1
2019-Dec-07 01:00 296 6 gusting 11 11.7
2019-Dec-07 00:45 307 6 gusting 11 11.1
2019-Dec-07 00:40 290 5 gusting 10 11.1
2019-Dec-07 00:35 310 6 gusting 8 11.1
2019-Dec-07 00:25 307 7 gusting 11 11.1
2019-Dec-07 00:20 279 6 gusting 11 10.6
2019-Dec-07 00:15 308 4 gusting 8 10.6
2019-Dec-07 00:10 286 6 gusting 10 10.6
2019-Dec-07 00:00 322 5 gusting 11 10.0
2019-Dec-06 23:55 302 3 gusting 10 10.0
2019-Dec-06 23:45 308 4 gusting 10 10.6
2019-Dec-06 23:35 10.0
2019-Dec-06 23:25 10.0
2019-Dec-06 23:15 258 2 gusting 4 10.0
2019-Dec-06 23:05 273 4 gusting 7 10.6
2019-Dec-06 23:00 286 5 gusting 7 10.6